User: anonymous   Login
Location: Los Gatos B&B
(42.6926°N, 77.0646°W)
Time: 23:05:47
(UTC-04:00)
Language:

SL-16 R/B - Orbit

View from above orbital plane
View from above orbital plane
View from above satellite
View from above satellite

Ground track
Ground track

The orbit data is extracted from the following two-line orbital elements,

1 28353U 04021B   15239.84175559 -.00000075 +00000-0 -14276-4 0  9990
2 28353 071.0030 021.1705 0003100 139.7662 220.3690 14.14164640578944
Epoch (UTC): 27 August 2015 20:12:07
Eccentricity: 0.0003100
inclination: 71.0030°
perigee height: 843 km
apogee height: 847 km
right ascension of ascending node: 21.1705°
argument of perigee: 139.7662°
revolutions per day: 14.14164640
mean anomaly at epoch: 220.3690°
orbit number at epoch: 57894

The dashed part of the orbit path shows where the satellite is in the earth's shadow,  

DLR